Forside
METAR-TAF:

METAR-TAF

Lufthavne :

Sparta Community Airport (Hunter Field)

Sparta, Illinois, USA

Breddekreds: 38-08-56N, længdekreds: 089-41-55W, højde: 164 m

Aktuelle vejr

Denne rapport blev lavet for 6 minutter siden, kl. 22:15 UTC
Vind 3 kt fra nordøst
Temperatur 7°C
Fugtighed 76%
Tryk 1020 hPa
Sigt: 16.1 km
skyfri

METAR: KSAR 162215Z AUTO 05003KT 10SM CLR 07/03 A3013 RMK AO2 T00730026

Tid: 16:21 (22:21 UTC)


TAF: fraværende

Vejrobservationer og prognoser fra mere end 4000 lufthavne (METAR og TAF).

De gule og røde prikker repræsenterer de meteorologiske stationer.

Flyt musen over at se navnet på stationen.

Så klik over at se vejr observationer og prognoser.

At skifte det kort: Klik på de grønne knapper med et sort kors for at zoome ind; på den grønne knap med en bindestreg for at zoome ud; eller på de grønne pile for tilstødende kort.


METAR-TAF: